TimeMST,TemperatureF,Dew PointF,Humidity,Sea Level PressureIn,VisibilityMPH,Wind Direction,Wind SpeedMPH,Gust SpeedMPH,PrecipitationIn,Events,Conditions,WindDirDegrees,DateUTC
12:58 AM,55.4,44.6,67,29.97,10.0,NE,5.8,-,N/A,,Clear,40,2013-02-05 07:58:00
1:58 AM,53.6,44.6,72,29.97,10.0,West,2.3,-,N/A,,Clear,280,2013-02-05 08:58:00
2:58 AM,51.8,44.6,76,29.97,10.0,North,5.8,-,N/A,,Clear,350,2013-02-05 09:58:00
3:58 AM,50.0,42.8,76,29.97,10.0,NNW,6.9,-,N/A,,Clear,340,2013-02-05 10:58:00
4:58 AM,48.2,42.8,82,29.97,10.0,North,4.6,-,N/A,,Clear,360,2013-02-05 11:58:00
5:58 AM,48.2,42.8,82,29.97,10.0,NW,4.6,-,N/A,,Clear,320,2013-02-05 12:58:00
6:58 AM,48.2,42.8,82,29.97,10.0,North,5.8,-,N/A,,Clear,360,2013-02-05 13:58:00
7:58 AM,50.0,42.8,76,30.00,10.0,North,4.6,-,N/A,,Clear,360,2013-02-05 14:58:00
8:58 AM,53.6,41.0,62,30.01,10.0,NNE,3.5,-,N/A,,Clear,20,2013-02-05 15:58:00
9:58 AM,59.0,39.2,48,30.01,10.0,NE,4.6,-,N/A,,Clear,40,2013-02-05 16:58:00
10:58 AM,62.6,39.2,42,30.02,10.0,Calm,Calm,-,N/A,,Clear,0,2013-02-05 17:58:00
11:58 AM,66.2,39.2,37,30.01,10.0,Variable,4.6,-,N/A,,Clear,0,2013-02-05 18:58:00
12:58 PM,68.0,41.0,37,29.97,10.0,East,4.6,-,N/A,,Clear,80,2013-02-05 19:58:00
1:58 PM,71.6,39.2,31,29.93,10.0,Variable,2.3,-,N/A,,Clear,0,2013-02-05 20:58:00
2:58 PM,72.3,40.5,32,29.91,10.0,SSW,5.8,-,N/A,,Clear,200,2013-02-05 21:58:00
3:58 PM,73.2,41.4,32,29.90,10.0,SW,9.2,-,N/A,,Clear,230,2013-02-05 22:58:00
4:58 PM,73.0,41.9,33,29.89,10.0,SW,6.9,-,N/A,,Clear,230,2013-02-05 23:58:00
5:58 PM,71.1,43.2,37,29.89,10.0,SSW,6.9,-,N/A,,Clear,200,2013-02-06 00:58:00
6:58 PM,68.7,43.3,40,29.89,10.0,Calm,Calm,-,N/A,,Clear,0,2013-02-06 01:58:00
7:58 PM,65.7,43.9,45,29.89,10.0,WSW,1.2,-,N/A,,Clear,250,2013-02-06 02:58:00
8:58 PM,60.3,46.2,60,29.89,10.0,Calm,Calm,-,N/A,,Clear,0,2013-02-06 03:58:00
9:58 PM,55.9,45.1,67,29.90,10.0,WNW,2.3,-,N/A,,Clear,300,2013-02-06 04:58:00
10:58 PM,54.0,44.4,70,29.90,10.0,North,4.6,-,N/A,,Clear,350,2013-02-06 05:58:00
11:58 PM,53.4,45.5,75,29.90,10.0,NNW,6.9,-,N/A,,Clear,340,2013-02-06 06:58:00